This is the latest recevied weather packets stored in our database for station/object KO4IDC-13. If no packets are shown the sender has not sent any weather packets the latest 10 day(s).
| Time | Temp. | Humidity | Pressure | Rain* | Wind** | Luminosity | Snow |
|---|---|---|---|---|---|---|---|
| 1778034847 | 11.11° C | 99% | 1010.4 hPa | 1.27 mm | - | 0 W/m² | - |
| 1778034543 | 11.11° C | 99% | 1010.1 hPa | 1.27 mm | - | 0 W/m² | - |
| 1778034241 | 11.11° C | 99% | 1009.8 hPa | 1.78 mm | - | 0 W/m² | - |
| 1778033939 | 11.11° C | 99% | 1009.6 hPa | 1.78 mm | - | 0 W/m² | - |
| 1778033635 | 11.11° C | 99% | 1009.6 hPa | 0 mm | - | 0 W/m² | - |
| 1778033332 | 11.11° C | 99% | 1009.5 hPa | 0 mm | - | 0 W/m² | - |
| 1778033030 | 11.11° C | 99% | 1009.6 hPa | 0 mm | - | 0 W/m² | - |
| 1778032727 | 11.11° C | 99% | 1009.7 hPa | 0 mm | - | 0 W/m² | - |
| 1778032425 | 11.11° C | 99% | 1009.6 hPa | 0 mm | - | 0 W/m² | - |
| 1778032121 | 11.67° C | 99% | 1009.3 hPa | 0 mm | - | 0 W/m² | - |
| 1778031818 | 11.67° C | 99% | 1009 hPa | 0 mm | - | 0 W/m² | - |
| 1778031515 | 11.67° C | 99% | 1008.4 hPa | 1.27 mm | - | 0 W/m² | - |
| 1778031212 | 11.11° C | 99% | 1008.9 hPa | 7.11 mm | - | 0 W/m² | - |
| 1778030909 | 11.11° C | 99% | 1009.9 hPa | 6.1 mm | - | 0 W/m² | - |
| 1778030606 | 11.67° C | 99% | 1010 hPa | 1.78 mm | - | 0 W/m² | - |
| 1778030303 | 11.67° C | 99% | 1009.7 hPa | 1.78 mm | - | 0 W/m² | - |
| 1778030000 | 11.67° C | 99% | 1009.5 hPa | 0 mm | - | 0 W/m² | - |
| 1778029697 | 11.67° C | 99% | 1009.6 hPa | 0 mm | - | 0 W/m² | - |
| 1778029395 | 11.67° C | 99% | 1009.7 hPa | 0 mm | - | 0 W/m² | - |
| 1778029092 | 11.67° C | 99% | 1009.9 hPa | 1.27 mm | - | 0 W/m² | - |
| 1778028788 | 11.67° C | 99% | 1009.6 hPa | 1.27 mm | - | 0 W/m² | - |
| 1778028484 | 11.67° C | 98% | 1009.3 hPa | 0 mm | - | 0 W/m² | - |
| 1778028182 | 11.67° C | 99% | 1009.5 hPa | 0 mm | - | 1 W/m² | - |
| 1778027878 | 11.67° C | 98% | 1009.5 hPa | 0 mm | - | 0 W/m² | - |
| 1778027575 | 11.67° C | 98% | 1009.5 hPa | 0 mm | - | 2 W/m² | - |
* Rain latest hour (hover to see other rain measurements)
** Current wind speed in m/s (hover to see current wind gust speed)